Time,TemperatureF,DewpointF,PressureIn,WindDirection,WindDirectionDegrees,WindSpeedMPH,WindSpeedGustMPH,Humidity,HourlyPrecipIn,Conditions,Clouds,dailyrainin,SoftwareType,DateUTC
2013-06-21 00:02:00,81.3,68.0,28.51,SSE,157,17.0,22.9,64,0.00,,,0.00,Rainwise IP-100,2013-06-21 05:02:00,
2013-06-21 00:07:00,81.2,68.0,28.50,SSE,157,16.6,22.4,64,0.00,,,0.00,Rainwise IP-100,2013-06-21 05:07:00,
2013-06-21 00:13:00,81.2,68.0,28.51,SSE,157,18.4,24.7,64,0.00,,,0.00,Rainwise IP-100,2013-06-21 05:13:00,
2013-06-21 00:18:00,81.0,67.5,28.51,SSE,157,14.2,24.0,64,0.00,,,0.00,Rainwise IP-100,2013-06-21 05:18:00,
2013-06-21 00:23:00,80.8,67.5,28.50,SSE,157,16.1,20.3,64,0.00,,,0.00,Rainwise IP-100,2013-06-21 05:23:00,
2013-06-21 00:28:00,80.6,67.0,28.51,SSE,157,10.7,19.4,64,0.00,,,0.00,Rainwise IP-100,2013-06-21 05:28:00,
2013-06-21 00:33:00,80.5,67.5,28.51,SSE,157,10.3,20.3,65,0.00,,,0.00,Rainwise IP-100,2013-06-21 05:33:00,
2013-06-21 00:38:00,80.3,67.5,28.50,SSE,157,17.0,22.6,65,0.00,,,0.00,Rainwise IP-100,2013-06-21 05:38:00,
2013-06-21 00:43:00,80.2,68.0,28.50,SSE,157,15.6,23.3,66,0.00,,,0.00,Rainwise IP-100,2013-06-21 05:43:00,
2013-06-21 00:48:00,80.2,68.0,28.50,SSE,157,15.4,23.1,66,0.00,,,0.00,Rainwise IP-100,2013-06-21 05:48:00,
2013-06-21 00:53:00,80.1,67.5,28.51,SSE,157,13.1,20.3,66,0.00,,,0.00,Rainwise IP-100,2013-06-21 05:53:00,
2013-06-21 00:58:00,79.9,67.5,28.50,SSE,157,13.8,21.7,66,0.00,,,0.00,Rainwise IP-100,2013-06-21 05:58:00,
2013-06-21 01:03:00,79.8,67.0,28.51,SSE,157,11.2,22.4,66,0.00,,,0.00,Rainwise IP-100,2013-06-21 06:03:00,
2013-06-21 01:08:00,79.8,67.0,28.50,SSE,157,9.3,22.4,66,0.00,,,0.00,Rainwise IP-100,2013-06-21 06:08:00,
2013-06-21 01:14:00,79.7,67.0,28.50,SSE,157,12.6,22.2,66,0.00,,,0.00,Rainwise IP-100,2013-06-21 06:14:00,
2013-06-21 01:19:00,79.7,67.0,28.50,SSE,157,11.2,20.8,66,0.00,,,0.00,Rainwise IP-100,2013-06-21 06:19:00,
2013-06-21 01:24:00,79.5,67.5,28.50,SSE,157,14.2,23.6,67,0.00,,,0.00,Rainwise IP-100,2013-06-21 06:24:00,
2013-06-21 01:29:00,79.3,68.0,28.50,SSE,157,17.0,22.2,68,0.00,,,0.00,Rainwise IP-100,2013-06-21 06:29:00,
2013-06-21 01:34:00,79.2,68.0,28.50,SSE,157,15.2,23.3,68,0.00,,,0.00,Rainwise IP-100,2013-06-21 06:34:00,
2013-06-21 01:39:00,79.1,68.0,28.49,SSE,157,11.4,23.8,69,0.00,,,0.00,Rainwise IP-100,2013-06-21 06:39:00,
2013-06-21 01:44:00,79.0,68.0,28.49,SSE,157,13.5,24.7,69,0.00,,,0.00,Rainwise IP-100,2013-06-21 06:44:00,
2013-06-21 01:49:00,79.0,68.0,28.49,SSE,157,12.8,23.3,69,0.00,,,0.00,Rainwise IP-100,2013-06-21 06:49:00,
2013-06-21 01:54:00,79.0,68.0,28.50,SSE,157,13.3,23.1,69,0.00,,,0.00,Rainwise IP-100,2013-06-21 06:54:00,
2013-06-21 01:59:00,78.9,68.0,28.49,SSE,157,21.9,21.9,69,0.00,,,0.00,Rainwise IP-100,2013-06-21 06:59:00,
2013-06-21 02:04:00,78.8,67.5,28.50,South,180,12.6,24.2,69,0.00,,,0.00,Rainwise IP-100,2013-06-21 07:04:00,
2013-06-21 02:09:00,78.8,67.5,28.50,SSE,157,13.8,21.7,69,0.00,,,0.00,Rainwise IP-100,2013-06-21 07:09:00,
2013-06-21 02:15:00,78.8,67.5,28.49,SSE,157,18.4,21.7,69,0.00,,,0.00,Rainwise IP-100,2013-06-21 07:15:00,
2013-06-21 02:20:00,78.9,67.5,28.49,SE,135,20.8,24.7,68,0.00,,,0.00,Rainwise IP-100,2013-06-21 07:20:00,
2013-06-21 02:25:00,79.0,67.5,28.49,SSE,157,17.5,25.4,68,0.00,,,0.00,Rainwise IP-100,2013-06-21 07:25:00,
2013-06-21 02:30:00,79.0,67.5,28.48,SSE,157,14.7,26.8,68,0.00,,,0.00,Rainwise IP-100,2013-06-21 07:30:00,
2013-06-21 02:35:00,79.1,67.5,28.49,SSE,157,14.2,23.3,68,0.00,,,0.00,Rainwise IP-100,2013-06-21 07:35:00,
2013-06-21 02:40:00,79.1,67.5,28.49,SSE,157,15.9,23.3,68,0.00,,,0.00,Rainwise IP-100,2013-06-21 07:40:00,
2013-06-21 02:45:00,79.1,67.0,28.49,SSE,157,11.9,22.4,67,0.00,,,0.00,Rainwise IP-100,2013-06-21 07:45:00,
2013-06-21 02:50:00,79.1,67.0,28.49,SSE,157,16.3,22.6,67,0.00,,,0.00,Rainwise IP-100,2013-06-21 07:50:00,
2013-06-21 02:55:00,79.0,67.5,28.49,SSE,157,17.5,24.2,68,0.00,,,0.00,Rainwise IP-100,2013-06-21 07:55:00,
2013-06-21 03:00:00,78.9,67.5,28.48,SSE,157,16.8,21.9,68,0.00,,,0.00,Rainwise IP-100,2013-06-21 08:00:00,
2013-06-21 03:05:00,78.8,67.0,28.48,SSE,157,14.9,21.5,68,0.00,,,0.00,Rainwise IP-100,2013-06-21 08:05:00,
2013-06-21 03:10:00,78.8,67.0,28.48,SSE,157,14.0,23.3,68,0.00,,,0.00,Rainwise IP-100,2013-06-21 08:10:00,
2013-06-21 03:16:00,78.7,67.0,28.48,SSE,157,9.3,20.5,68,0.00,,,0.00,Rainwise IP-100,2013-06-21 08:16:00,
2013-06-21 03:21:00,78.5,67.0,28.48,SSE,157,16.6,20.1,68,0.00,,,0.00,Rainwise IP-100,2013-06-21 08:21:00,
2013-06-21 03:26:00,78.4,67.5,28.49,SE,135,16.6,25.2,69,0.00,,,0.00,Rainwise IP-100,2013-06-21 08:26:00,
2013-06-21 03:31:00,78.4,67.5,28.48,SSE,157,14.7,24.5,69,0.00,,,0.00,Rainwise IP-100,2013-06-21 08:31:00,
2013-06-21 03:36:00,78.4,67.5,28.48,SSE,157,14.7,20.5,69,0.00,,,0.00,Rainwise IP-100,2013-06-21 08:36:00,
2013-06-21 03:41:00,78.3,67.5,28.48,SSE,157,11.4,22.9,69,0.00,,,0.00,Rainwise IP-100,2013-06-21 08:41:00,
2013-06-21 03:46:00,78.4,67.0,28.49,South,180,12.4,22.4,68,0.00,,,0.00,Rainwise IP-100,2013-06-21 08:46:00,
2013-06-21 03:51:00,78.4,67.0,28.49,SSE,157,12.6,26.8,68,0.00,,,0.00,Rainwise IP-100,2013-06-21 08:51:00,
2013-06-21 03:56:00,78.4,67.0,28.49,SSE,157,14.0,22.4,68,0.00,,,0.00,Rainwise IP-100,2013-06-21 08:56:00,
2013-06-21 04:01:00,78.4,67.0,28.49,SSE,157,19.6,21.7,68,0.00,,,0.00,Rainwise IP-100,2013-06-21 09:01:00,
2013-06-21 04:06:00,78.4,67.0,28.49,SSE,157,12.8,20.8,68,0.00,,,0.00,Rainwise IP-100,2013-06-21 09:06:00,
2013-06-21 04:11:00,78.4,67.0,28.49,SSE,157,14.0,24.0,68,0.00,,,0.00,Rainwise IP-100,2013-06-21 09:11:00,
2013-06-21 04:17:00,78.4,67.0,28.49,SSE,157,11.7,20.3,68,0.00,,,0.00,Rainwise IP-100,2013-06-21 09:17:00,
2013-06-21 04:22:00,78.5,67.0,28.49,SSE,157,13.5,21.5,68,0.00,,,0.00,Rainwise IP-100,2013-06-21 09:22:00,
2013-06-21 04:27:00,78.5,66.7,28.49,SSE,157,14.7,21.7,67,0.00,,,0.00,Rainwise IP-100,2013-06-21 09:27:00,
2013-06-21 04:32:00,78.5,66.7,28.49,SSE,157,15.6,22.9,67,0.00,,,0.00,Rainwise IP-100,2013-06-21 09:32:00,
2013-06-21 04:37:00,78.6,66.7,28.49,SSE,157,19.4,24.9,67,0.00,,,0.00,Rainwise IP-100,2013-06-21 09:37:00,
2013-06-21 04:43:00,78.6,66.7,28.49,SSE,157,9.8,19.6,67,0.00,,,0.00,Rainwise IP-100,2013-06-21 09:43:00,
2013-06-21 04:48:00,78.5,66.7,28.50,SSE,157,11.7,23.3,67,0.00,,,0.00,Rainwise IP-100,2013-06-21 09:48:00,
2013-06-21 04:53:00,78.4,66.7,28.49,SSE,157,14.9,22.4,67,0.00,,,0.00,Rainwise IP-100,2013-06-21 09:53:00,
2013-06-21 04:58:00,78.4,66.7,28.50,SSE,157,18.9,23.1,67,0.00,,,0.00,Rainwise IP-100,2013-06-21 09:58:00,
2013-06-21 05:03:00,78.3,66.7,28.50,South,180,16.1,20.1,67,0.00,,,0.00,Rainwise IP-100,2013-06-21 10:03:00,
2013-06-21 05:08:00,78.2,66.7,28.50,SSE,157,7.7,18.4,67,0.00,,,0.00,Rainwise IP-100,2013-06-21 10:08:00,
2013-06-21 05:13:00,78.0,66.3,28.50,South,180,14.2,19.1,67,0.00,,,0.00,Rainwise IP-100,2013-06-21 10:13:00,
2013-06-21 05:18:00,77.9,66.7,28.51,South,180,12.1,16.3,68,0.00,,,0.00,Rainwise IP-100,2013-06-21 10:18:00,
2013-06-21 05:23:00,77.7,66.3,28.52,SSE,157,9.1,19.6,68,0.00,,,0.00,Rainwise IP-100,2013-06-21 10:23:00,
2013-06-21 05:28:00,77.5,66.7,28.51,SSE,157,9.1,18.9,69,0.00,,,0.00,Rainwise IP-100,2013-06-21 10:28:00,
2013-06-21 05:33:00,77.4,66.7,28.51,SSE,157,11.4,19.4,69,0.00,,,0.00,Rainwise IP-100,2013-06-21 10:33:00,
2013-06-21 05:39:00,77.2,66.7,28.52,SSE,157,11.9,15.6,69,0.00,,,0.00,Rainwise IP-100,2013-06-21 10:39:00,
2013-06-21 05:47:00,77.0,66.7,28.52,SSE,157,10.3,10.3,70,0.00,,,0.00,Rainwise IP-100,2013-06-21 10:47:00,
2013-06-21 05:52:00,77.0,66.7,28.51,SSE,157,12.8,16.3,70,0.00,,,0.00,Rainwise IP-100,2013-06-21 10:52:00,
2013-06-21 05:57:00,76.9,66.7,28.52,SSE,157,9.6,14.9,70,0.00,,,0.00,Rainwise IP-100,2013-06-21 10:57:00,
2013-06-21 06:02:00,76.8,66.3,28.52,South,180,9.8,15.9,70,0.00,,,0.00,Rainwise IP-100,2013-06-21 11:02:00,
2013-06-21 06:07:00,76.7,66.3,28.52,SSE,157,9.1,16.6,70,0.00,,,0.00,Rainwise IP-100,2013-06-21 11:07:00,
2013-06-21 06:12:00,76.6,66.3,28.52,SSE,157,13.8,17.3,71,0.00,,,0.00,Rainwise IP-100,2013-06-21 11:12:00,
2013-06-21 06:17:00,76.5,66.3,28.52,SSE,157,8.9,16.1,71,0.00,,,0.00,Rainwise IP-100,2013-06-21 11:17:00,
2013-06-21 06:22:00,76.3,66.3,28.52,SSE,157,11.7,13.5,71,0.00,,,0.00,Rainwise IP-100,2013-06-21 11:22:00,
2013-06-21 06:27:00,76.2,66.3,28.52,SSE,157,11.0,15.2,71,0.00,,,0.00,Rainwise IP-100,2013-06-21 11:27:00,
2013-06-21 06:32:00,76.1,66.3,28.53,SSE,157,9.3,12.4,72,0.00,,,0.00,Rainwise IP-100,2013-06-21 11:32:00,
2013-06-21 06:38:00,76.0,66.3,28.52,SSE,157,10.5,14.2,72,0.00,,,0.00,Rainwise IP-100,2013-06-21 11:38:00,
2013-06-21 06:43:00,76.0,66.3,28.53,South,180,10.0,14.7,72,0.00,,,0.00,Rainwise IP-100,2013-06-21 11:43:00,
2013-06-21 06:48:00,75.9,66.3,28.52,SSE,157,11.7,14.9,72,0.00,,,0.00,Rainwise IP-100,2013-06-21 11:48:00,
2013-06-21 06:53:00,76.0,66.3,28.52,South,180,8.6,14.9,72,0.00,,,0.00,Rainwise IP-100,2013-06-21 11:53:00,
2013-06-21 07:04:00,76.0,66.7,28.52,SSE,157,10.7,0.0,73,0.00,,,0.00,Rainwise IP-100,2013-06-21 12:04:00,
2013-06-21 07:09:00,76.1,66.7,28.52,South,180,13.5,15.2,73,0.00,,,0.00,Rainwise IP-100,2013-06-21 12:09:00,
2013-06-21 07:14:00,76.1,66.3,28.52,SSE,157,10.3,17.3,72,0.00,,,0.00,Rainwise IP-100,2013-06-21 12:14:00,
2013-06-21 07:19:00,76.1,66.3,28.52,SSE,157,11.0,14.9,72,0.00,,,0.00,Rainwise IP-100,2013-06-21 12:19:00,
2013-06-21 07:24:00,76.1,66.3,28.52,SSE,157,7.7,14.0,72,0.00,,,0.00,Rainwise IP-100,2013-06-21 12:24:00,
2013-06-21 07:29:00,76.1,66.3,28.52,SSE,157,8.6,14.5,72,0.00,,,0.00,Rainwise IP-100,2013-06-21 12:29:00,
2013-06-21 07:34:00,76.3,66.7,28.52,SSE,157,11.4,15.4,72,0.00,,,0.00,Rainwise IP-100,2013-06-21 12:34:00,
2013-06-21 07:39:00,76.7,66.7,28.52,SSE,157,14.0,14.0,71,0.00,,,0.00,Rainwise IP-100,2013-06-21 12:39:00,
2013-06-21 07:44:00,77.1,66.7,28.52,SSE,157,6.1,15.6,70,0.00,,,0.00,Rainwise IP-100,2013-06-21 12:44:00,
2013-06-21 07:49:00,77.6,66.7,28.53,SSE,157,8.6,13.8,69,0.00,,,0.00,Rainwise IP-100,2013-06-21 12:49:00,
2013-06-21 07:55:00,78.0,66.7,28.52,SSE,157,12.1,16.8,68,0.00,,,0.00,Rainwise IP-100,2013-06-21 12:55:00,
2013-06-21 08:00:00,78.0,66.7,28.53,South,180,16.8,16.8,68,0.00,,,0.00,Rainwise IP-100,2013-06-21 13:00:00,
2013-06-21 08:05:00,78.0,66.7,28.53,SSE,157,14.0,18.4,68,0.00,,,0.00,Rainwise IP-100,2013-06-21 13:05:00,
2013-06-21 08:10:00,78.2,67.0,28.53,SSE,157,14.7,19.6,68,0.00,,,0.00,Rainwise IP-100,2013-06-21 13:10:00,
2013-06-21 08:15:00,78.6,66.7,28.52,SSE,157,15.4,18.2,67,0.00,,,0.00,Rainwise IP-100,2013-06-21 13:15:00,
2013-06-21 08:20:00,78.9,66.7,28.52,SSE,157,14.5,22.4,66,0.00,,,0.00,Rainwise IP-100,2013-06-21 13:20:00,
2013-06-21 08:25:00,79.2,67.0,28.53,SSE,157,8.4,18.4,66,0.00,,,0.00,Rainwise IP-100,2013-06-21 13:25:00,
2013-06-21 08:30:00,79.5,66.7,28.53,SSE,157,10.3,21.2,65,0.00,,,0.00,Rainwise IP-100,2013-06-21 13:30:00,
2013-06-21 08:35:00,79.8,66.3,28.53,South,180,13.5,19.6,64,0.00,,,0.00,Rainwise IP-100,2013-06-21 13:35:00,
2013-06-21 08:40:00,80.2,67.0,28.53,SSE,157,15.4,21.7,64,0.00,,,0.00,Rainwise IP-100,2013-06-21 13:40:00,
2013-06-21 08:45:00,80.6,66.7,28.53,SSE,157,11.2,22.9,63,0.00,,,0.00,Rainwise IP-100,2013-06-21 13:45:00,
2013-06-21 08:50:00,81.1,66.7,28.53,SSE,157,11.0,20.8,62,0.00,,,0.00,Rainwise IP-100,2013-06-21 13:50:00,
2013-06-21 08:56:00,81.5,66.7,28.52,SSW,202,22.2,22.2,61,0.00,,,0.00,Rainwise IP-100,2013-06-21 13:56:00,
2013-06-21 09:01:00,81.8,66.7,28.53,SSE,157,16.3,22.9,61,0.00,,,0.00,Rainwise IP-100,2013-06-21 14:01:00,
2013-06-21 09:06:00,82.1,66.7,28.52,South,180,14.0,22.2,60,0.00,,,0.00,Rainwise IP-100,2013-06-21 14:06:00,
2013-06-21 09:11:00,82.5,67.0,28.52,SSE,157,20.5,21.7,60,0.00,,,0.00,Rainwise IP-100,2013-06-21 14:11:00,
2013-06-21 09:16:00,82.9,67.0,28.53,SSE,157,12.1,22.4,59,0.00,,,0.00,Rainwise IP-100,2013-06-21 14:16:00,
2013-06-21 09:21:00,83.3,67.0,28.53,SSE,157,17.5,22.4,58,0.00,,,0.00,Rainwise IP-100,2013-06-21 14:21:00,
2013-06-21 09:26:00,83.6,67.0,28.53,South,180,15.9,24.2,58,0.00,,,0.00,Rainwise IP-100,2013-06-21 14:26:00,
2013-06-21 09:31:00,83.9,67.0,28.53,SSE,157,16.1,23.6,57,0.00,,,0.00,Rainwise IP-100,2013-06-21 14:31:00,
2013-06-21 09:37:00,84.1,66.7,28.53,South,180,21.2,23.1,56,0.00,,,0.00,Rainwise IP-100,2013-06-21 14:37:00,
2013-06-21 09:42:00,84.1,66.7,28.53,South,180,15.2,21.5,56,0.00,,,0.00,Rainwise IP-100,2013-06-21 14:42:00,
2013-06-21 09:47:00,84.3,67.0,28.53,SSE,157,11.9,19.8,56,0.00,,,0.00,Rainwise IP-100,2013-06-21 14:47:00,
2013-06-21 09:53:00,84.6,67.0,28.53,South,180,13.3,20.8,56,0.00,,,0.00,Rainwise IP-100,2013-06-21 14:53:00,
2013-06-21 09:58:00,85.1,67.0,28.53,SSE,157,15.4,22.6,55,0.00,,,0.00,Rainwise IP-100,2013-06-21 14:58:00,
2013-06-21 10:03:00,85.4,67.5,28.54,South,180,15.2,21.5,55,0.00,,,0.00,Rainwise IP-100,2013-06-21 15:03:00,
2013-06-21 10:08:00,85.6,66.7,28.54,South,180,17.7,26.6,54,0.00,,,0.00,Rainwise IP-100,2013-06-21 15:08:00,
2013-06-21 10:13:00,86.2,67.0,28.53,South,180,19.4,26.6,53,0.00,,,0.00,Rainwise IP-100,2013-06-21 15:13:00,
2013-06-21 10:18:00,86.4,67.0,28.53,SSE,157,17.3,24.0,53,0.00,,,0.00,Rainwise IP-100,2013-06-21 15:18:00,
2013-06-21 10:23:00,86.4,67.0,28.53,SSE,157,13.5,22.2,53,0.00,,,0.00,Rainwise IP-100,2013-06-21 15:23:00,
2013-06-21 10:29:00,86.7,67.5,28.53,SSE,157,16.6,22.2,53,0.00,,,0.00,Rainwise IP-100,2013-06-21 15:29:00,
2013-06-21 10:34:00,86.8,67.5,28.53,South,180,19.1,23.3,53,0.00,,,0.00,Rainwise IP-100,2013-06-21 15:34:00,
2013-06-21 10:39:00,86.8,67.0,28.53,SSE,157,19.6,25.9,52,0.00,,,0.00,Rainwise IP-100,2013-06-21 15:39:00,
2013-06-21 10:44:00,86.8,67.0,28.53,SSE,157,16.8,23.1,52,0.00,,,0.00,Rainwise IP-100,2013-06-21 15:44:00,
2013-06-21 10:49:00,86.8,67.0,28.53,South,180,16.6,23.1,52,0.00,,,0.00,Rainwise IP-100,2013-06-21 15:49:00,
2013-06-21 10:54:00,87.1,67.5,28.53,SSE,157,12.6,20.5,52,0.00,,,0.00,Rainwise IP-100,2013-06-21 15:54:00,
2013-06-21 10:59:00,87.8,67.5,28.54,South,180,15.2,26.1,51,0.00,,,0.00,Rainwise IP-100,2013-06-21 15:59:00,
2013-06-21 11:04:00,88.6,67.5,28.54,SSE,157,20.8,25.6,50,0.00,,,0.00,Rainwise IP-100,2013-06-21 16:04:00,
2013-06-21 11:10:00,88.9,67.5,28.53,South,180,14.0,25.4,49,0.00,,,0.00,Rainwise IP-100,2013-06-21 16:10:00,
2013-06-21 11:14:00,89.3,67.5,28.53,South,180,21.2,24.5,49,0.00,,,0.00,Rainwise IP-100,2013-06-21 16:14:00,
2013-06-21 11:20:00,89.6,67.0,28.53,SSE,157,18.7,24.9,48,0.00,,,0.00,Rainwise IP-100,2013-06-21 16:20:00,
2013-06-21 11:25:00,90.1,68.0,28.53,SSW,202,20.1,23.6,48,0.00,,,0.00,Rainwise IP-100,2013-06-21 16:25:00,
2013-06-21 11:30:00,90.5,68.5,28.53,SSE,157,14.7,26.8,48,0.00,,,0.00,Rainwise IP-100,2013-06-21 16:30:00,
2013-06-21 11:35:00,90.6,67.5,28.52,SSE,157,20.3,26.3,47,0.00,,,0.00,Rainwise IP-100,2013-06-21 16:35:00,
2013-06-21 11:40:00,90.6,67.5,28.53,SSW,202,20.8,28.0,47,0.00,,,0.00,Rainwise IP-100,2013-06-21 16:40:00,
2013-06-21 11:45:00,90.6,67.5,28.52,South,180,16.8,25.4,47,0.00,,,0.00,Rainwise IP-100,2013-06-21 16:45:00,
2013-06-21 11:50:00,90.7,68.0,28.53,South,180,20.3,24.2,47,0.00,,,0.00,Rainwise IP-100,2013-06-21 16:50:00,
2013-06-21 11:55:00,90.6,67.0,28.53,SSE,157,14.7,26.6,46,0.00,,,0.00,Rainwise IP-100,2013-06-21 16:55:00,
2013-06-21 12:01:00,90.4,67.5,28.53,South,180,19.8,26.1,47,0.00,,,0.00,Rainwise IP-100,2013-06-21 17:01:00,
2013-06-21 12:06:00,90.5,67.5,28.52,South,180,25.6,26.1,47,0.00,,,0.00,Rainwise IP-100,2013-06-21 17:06:00,
2013-06-21 12:12:00,90.8,67.0,28.53,South,180,19.6,25.6,46,0.00,,,0.00,Rainwise IP-100,2013-06-21 17:12:00,
2013-06-21 12:18:00,91.3,67.0,28.52,SSE,157,21.7,24.5,45,0.00,,,0.00,Rainwise IP-100,2013-06-21 17:18:00,
2013-06-21 12:23:00,91.5,67.0,28.52,South,180,16.1,27.0,45,0.00,,,0.00,Rainwise IP-100,2013-06-21 17:23:00,
2013-06-21 12:28:00,91.4,67.0,28.52,South,180,22.6,25.6,45,0.00,,,0.00,Rainwise IP-100,2013-06-21 17:28:00,
2013-06-21 12:35:00,91.3,67.0,28.51,SSE,157,20.1,23.3,45,0.00,,,0.00,Rainwise IP-100,2013-06-21 17:35:00,
2013-06-21 12:40:00,91.7,68.0,28.52,SSE,157,18.4,21.7,46,0.00,,,0.00,Rainwise IP-100,2013-06-21 17:40:00,
2013-06-21 12:45:00,91.9,67.5,28.52,SSE,157,20.1,27.7,45,0.00,,,0.00,Rainwise IP-100,2013-06-21 17:45:00,
2013-06-21 12:47:00,91.8,67.5,28.52,SSE,157,17.7,28.4,45,0.00,,,0.00,Rainwise IP-100,2013-06-21 17:47:00,
2013-06-21 12:48:00,91.7,67.5,28.53,SSE,157,17.5,28.4,45,0.00,,,0.00,Rainwise IP-100,2013-06-21 17:48:00,
2013-06-21 12:51:00,91.5,67.0,28.52,South,180,16.3,28.4,45,0.00,,,0.00,Rainwise IP-100,2013-06-21 17:51:00,
2013-06-21 12:52:00,91.4,67.0,28.51,SSE,157,17.3,27.3,45,0.00,,,0.00,Rainwise IP-100,2013-06-21 17:52:00,
2013-06-21 12:55:00,91.3,67.0,28.52,SSE,157,20.8,24.7,45,0.00,,,0.00,Rainwise IP-100,2013-06-21 17:55:00,
2013-06-21 13:00:00,91.2,67.0,28.52,SSE,157,16.3,25.2,45,0.00,,,0.00,Rainwise IP-100,2013-06-21 18:00:00,
2013-06-21 13:07:00,91.3,67.0,28.52,SSE,157,17.3,26.1,45,0.00,,,0.00,Rainwise IP-100,2013-06-21 18:07:00,
2013-06-21 13:14:00,91.6,68.0,28.52,SSE,157,14.2,24.2,46,0.00,,,0.00,Rainwise IP-100,2013-06-21 18:14:00,
2013-06-21 13:20:00,92.1,67.5,28.51,SE,135,15.6,23.6,45,0.00,,,0.00,Rainwise IP-100,2013-06-21 18:20:00,
2013-06-21 13:24:00,92.5,67.5,28.51,South,180,19.6,22.9,44,0.00,,,0.00,Rainwise IP-100,2013-06-21 18:24:00,
2013-06-21 13:26:00,92.8,67.5,28.51,SSE,157,14.5,25.6,44,0.00,,,0.00,Rainwise IP-100,2013-06-21 18:26:00,
2013-06-21 13:28:00,93.2,67.5,28.51,South,180,23.8,25.6,43,0.00,,,0.00,Rainwise IP-100,2013-06-21 18:28:00,
2013-06-21 13:29:00,93.3,67.5,28.51,SSE,157,19.6,25.6,43,0.00,,,0.00,Rainwise IP-100,2013-06-21 18:29:00,
2013-06-21 13:31:00,93.7,67.0,28.51,South,180,18.4,24.7,42,0.00,,,0.00,Rainwise IP-100,2013-06-21 18:31:00,
2013-06-21 13:36:00,94.0,66.7,28.51,South,180,13.3,27.5,41,0.00,,,0.00,Rainwise IP-100,2013-06-21 18:36:00,
2013-06-21 13:41:00,94.3,67.0,28.51,SSE,157,20.1,25.4,41,0.00,,,0.00,Rainwise IP-100,2013-06-21 18:41:00,
2013-06-21 13:47:00,94.8,66.0,28.51,South,180,22.4,31.0,39,0.00,,,0.00,Rainwise IP-100,2013-06-21 18:47:00,
2013-06-21 13:49:00,94.8,66.0,28.51,SSE,157,23.3,30.8,39,0.00,,,0.00,Rainwise IP-100,2013-06-21 18:49:00,
2013-06-21 13:52:00,94.6,65.0,28.50,South,180,21.2,29.8,38,0.00,,,0.00,Rainwise IP-100,2013-06-21 18:52:00,
2013-06-21 13:56:00,94.3,66.0,28.50,SSE,157,16.6,27.0,39,0.00,,,0.00,Rainwise IP-100,2013-06-21 18:56:00,
2013-06-21 13:58:00,94.1,65.5,28.50,SSE,157,24.7,27.0,39,0.00,,,0.00,Rainwise IP-100,2013-06-21 18:58:00,
2013-06-21 14:03:00,93.9,66.0,28.49,SSE,157,20.1,26.8,40,0.00,,,0.00,Rainwise IP-100,2013-06-21 19:03:00,
2013-06-21 14:08:00,94.3,66.0,28.50,South,180,21.2,29.4,39,0.00,,,0.00,Rainwise IP-100,2013-06-21 19:08:00,
2013-06-21 14:14:00,95.3,66.0,28.50,SSE,157,13.1,28.4,38,0.00,,,0.00,Rainwise IP-100,2013-06-21 19:14:00,
2013-06-21 14:20:00,95.6,66.7,28.49,South,180,28.4,28.4,39,0.00,,,0.00,Rainwise IP-100,2013-06-21 19:20:00,
2013-06-21 14:21:00,95.6,66.7,28.50,SSE,157,17.0,28.4,39,0.00,,,0.00,Rainwise IP-100,2013-06-21 19:21:00,
2013-06-21 14:26:00,95.4,66.7,28.50,SSE,157,13.3,28.7,39,0.00,,,0.00,Rainwise IP-100,2013-06-21 19:26:00,
2013-06-21 14:31:00,95.6,66.7,28.50,SSW,202,22.9,25.6,39,0.00,,,0.00,Rainwise IP-100,2013-06-21 19:31:00,
2013-06-21 14:36:00,95.9,66.3,28.50,South,180,18.2,29.4,38,0.00,,,0.00,Rainwise IP-100,2013-06-21 19:36:00,
2013-06-21 14:41:00,96.2,66.0,28.49,South,180,28.7,33.8,37,0.00,,,0.00,Rainwise IP-100,2013-06-21 19:41:00,
2013-06-21 14:43:00,96.2,66.0,28.49,South,180,23.3,33.8,37,0.00,,,0.00,Rainwise IP-100,2013-06-21 19:43:00,
2013-06-21 14:48:00,96.3,65.0,28.48,South,180,20.5,31.7,36,0.00,,,0.00,Rainwise IP-100,2013-06-21 19:48:00,
2013-06-21 14:53:00,96.0,65.5,28.48,South,180,21.0,28.7,37,0.00,,,0.00,Rainwise IP-100,2013-06-21 19:53:00,
2013-06-21 14:58:00,95.7,65.5,28.48,South,180,17.3,27.0,37,0.00,,,0.00,Rainwise IP-100,2013-06-21 19:58:00,
2013-06-21 15:03:00,96.0,65.5,28.48,SSE,157,24.2,29.4,37,0.00,,,0.00,Rainwise IP-100,2013-06-21 20:03:00,
2013-06-21 15:04:00,96.0,65.5,28.48,SSE,157,16.1,29.4,37,0.00,,,0.00,Rainwise IP-100,2013-06-21 20:04:00,
2013-06-21 15:09:00,96.4,66.0,28.48,SSE,157,16.1,28.2,37,0.00,,,0.00,Rainwise IP-100,2013-06-21 20:09:00,
2013-06-21 15:14:00,96.3,65.0,28.48,SSE,157,14.5,26.6,36,0.00,,,0.00,Rainwise IP-100,2013-06-21 20:14:00,
2013-06-21 15:20:00,96.0,65.0,28.48,SSE,157,20.5,24.5,36,0.00,,,0.00,Rainwise IP-100,2013-06-21 20:20:00,
2013-06-21 15:22:00,95.9,65.0,28.48,SSE,157,17.7,25.4,36,0.00,,,0.00,Rainwise IP-100,2013-06-21 20:22:00,
2013-06-21 15:27:00,95.8,64.5,28.48,South,180,18.4,29.4,36,0.00,,,0.00,Rainwise IP-100,2013-06-21 20:27:00,
2013-06-21 15:32:00,95.7,64.5,28.48,SSE,157,17.3,27.0,36,0.00,,,0.00,Rainwise IP-100,2013-06-21 20:32:00,
2013-06-21 15:37:00,95.4,65.0,28.47,SSE,157,17.7,28.9,37,0.00,,,0.00,Rainwise IP-100,2013-06-21 20:37:00,
2013-06-21 15:42:00,95.5,65.5,28.47,SSE,157,25.9,27.7,37,0.00,,,0.00,Rainwise IP-100,2013-06-21 20:42:00,
2013-06-21 15:47:00,95.9,65.0,28.46,SSE,157,14.5,27.7,36,0.00,,,0.00,Rainwise IP-100,2013-06-21 20:47:00,
2013-06-21 15:53:00,95.7,64.5,28.46,SSE,157,19.1,31.2,36,0.00,,,0.00,Rainwise IP-100,2013-06-21 20:53:00,
2013-06-21 15:58:00,94.9,64.5,28.46,SSE,157,19.4,33.6,37,0.00,,,0.00,Rainwise IP-100,2013-06-21 20:58:00,
2013-06-21 16:03:00,94.3,65.0,28.46,South,180,27.3,35.0,38,0.00,,,0.00,Rainwise IP-100,2013-06-21 21:03:00,
2013-06-21 16:08:00,93.8,65.0,28.47,SSE,157,27.7,29.8,39,0.00,,,0.00,Rainwise IP-100,2013-06-21 21:08:00,
2013-06-21 16:11:00,93.6,65.0,28.48,SSE,157,14.9,29.8,39,0.00,,,0.00,Rainwise IP-100,2013-06-21 21:11:00,
2013-06-21 16:17:00,93.6,65.0,28.47,South,180,22.9,27.0,39,0.00,,,0.00,Rainwise IP-100,2013-06-21 21:17:00,
2013-06-21 16:22:00,94.0,65.5,28.47,SSE,157,23.8,26.6,39,0.00,,,0.00,Rainwise IP-100,2013-06-21 21:22:00,
2013-06-21 16:27:00,94.6,66.0,28.47,SSE,157,11.7,30.5,39,0.00,,,0.00,Rainwise IP-100,2013-06-21 21:27:00,
2013-06-21 16:32:00,94.8,66.0,28.47,South,180,20.1,27.0,39,0.00,,,0.00,Rainwise IP-100,2013-06-21 21:32:00,
2013-06-21 16:37:00,94.7,66.0,28.47,SSE,157,20.5,29.4,39,0.00,,,0.00,Rainwise IP-100,2013-06-21 21:37:00,
2013-06-21 16:42:00,94.6,66.0,28.46,SSE,157,12.8,23.8,39,0.00,,,0.00,Rainwise IP-100,2013-06-21 21:42:00,
2013-06-21 16:47:00,94.3,66.3,28.46,SSE,157,14.0,28.4,40,0.00,,,0.00,Rainwise IP-100,2013-06-21 21:47:00,
2013-06-21 16:52:00,94.3,66.3,28.46,SE,135,18.4,25.9,40,0.00,,,0.00,Rainwise IP-100,2013-06-21 21:52:00,
2013-06-21 16:57:00,94.3,66.0,28.46,SSE,157,18.2,26.3,39,0.00,,,0.00,Rainwise IP-100,2013-06-21 21:57:00,
2013-06-21 17:02:00,94.0,65.5,28.47,South,180,19.4,24.2,39,0.00,,,0.00,Rainwise IP-100,2013-06-21 22:02:00,
2013-06-21 17:07:00,93.8,66.0,28.46,SSE,157,22.4,24.9,40,0.00,,,0.00,Rainwise IP-100,2013-06-21 22:07:00,
2013-06-21 17:12:00,93.6,65.0,28.46,SSE,157,20.1,27.0,39,0.00,,,0.00,Rainwise IP-100,2013-06-21 22:12:00,
2013-06-21 17:18:00,93.2,64.5,28.46,SSE,157,25.4,25.6,39,0.00,,,0.00,Rainwise IP-100,2013-06-21 22:18:00,
2013-06-21 17:23:00,93.1,65.5,28.46,SSE,157,9.8,27.3,40,0.00,,,0.00,Rainwise IP-100,2013-06-21 22:23:00,
2013-06-21 17:28:00,93.1,66.0,28.46,SSE,157,23.6,23.6,41,0.00,,,0.00,Rainwise IP-100,2013-06-21 22:28:00,
2013-06-21 17:33:00,93.0,66.0,28.46,SSE,157,18.4,28.2,41,0.00,,,0.00,Rainwise IP-100,2013-06-21 22:33:00,
2013-06-21 17:38:00,93.1,66.0,28.46,SSE,157,14.9,27.5,41,0.00,,,0.00,Rainwise IP-100,2013-06-21 22:38:00,
2013-06-21 17:43:00,93.2,66.0,28.46,SSE,157,27.3,28.2,41,0.00,,,0.00,Rainwise IP-100,2013-06-21 22:43:00,
2013-06-21 17:48:00,93.3,66.3,28.46,SSE,157,22.6,30.5,41,0.00,,,0.00,Rainwise IP-100,2013-06-21 22:48:00,
2013-06-21 17:53:00,93.3,65.5,28.46,SSE,157,16.3,27.7,40,0.00,,,0.00,Rainwise IP-100,2013-06-21 22:53:00,
2013-06-21 17:58:00,93.2,66.0,28.46,SSE,157,21.0,28.9,41,0.00,,,0.00,Rainwise IP-100,2013-06-21 22:58:00,
2013-06-21 18:03:00,93.2,67.5,28.45,SSE,157,20.3,28.9,43,0.00,,,0.00,Rainwise IP-100,2013-06-21 23:03:00,
2013-06-21 18:08:00,93.4,67.5,28.46,SSE,157,19.6,29.1,43,0.00,,,0.00,Rainwise IP-100,2013-06-21 23:08:00,
2013-06-21 18:13:00,93.7,68.0,28.45,SSE,157,24.9,32.2,43,0.00,,,0.00,Rainwise IP-100,2013-06-21 23:13:00,
2013-06-21 18:18:00,93.5,68.5,28.46,SSE,157,18.2,31.0,44,0.00,,,0.00,Rainwise IP-100,2013-06-21 23:18:00,
2013-06-21 18:24:00,92.9,68.5,28.45,SE,135,27.7,32.6,45,0.00,,,0.00,Rainwise IP-100,2013-06-21 23:24:00,
2013-06-21 18:29:00,92.3,68.5,28.46,SSE,157,13.3,30.1,46,0.00,,,0.00,Rainwise IP-100,2013-06-21 23:29:00,
2013-06-21 18:34:00,91.7,69.0,28.46,SSW,202,19.6,25.4,47,0.00,,,0.00,Rainwise IP-100,2013-06-21 23:34:00,
2013-06-21 18:39:00,91.5,68.5,28.46,SSE,157,21.0,31.2,47,0.00,,,0.00,Rainwise IP-100,2013-06-21 23:39:00,
2013-06-21 18:44:00,91.1,69.0,28.47,SSE,157,21.5,31.9,48,0.00,,,0.00,Rainwise IP-100,2013-06-21 23:44:00,
2013-06-21 18:49:00,90.7,68.5,28.46,SSE,157,13.1,24.9,48,0.00,,,0.00,Rainwise IP-100,2013-06-21 23:49:00,
2013-06-21 18:54:00,90.5,69.0,28.47,SSE,157,11.4,25.4,49,0.00,,,0.00,Rainwise IP-100,2013-06-21 23:54:00,
2013-06-21 18:59:00,90.4,69.3,28.46,South,180,27.0,27.0,50,0.00,,,0.00,Rainwise IP-100,2013-06-21 23:59:00,
2013-06-21 19:04:00,90.3,69.3,28.47,SSE,157,17.0,28.7,50,0.00,,,0.00,Rainwise IP-100,2013-06-22 00:04:00,
2013-06-21 19:09:00,90.3,69.3,28.47,South,180,23.3,25.6,50,0.00,,,0.00,Rainwise IP-100,2013-06-22 00:09:00,
2013-06-21 19:14:00,90.3,69.3,28.46,SSE,157,27.0,27.0,50,0.00,,,0.00,Rainwise IP-100,2013-06-22 00:14:00,
2013-06-21 19:20:00,90.0,69.0,28.47,SSE,157,11.2,23.8,50,0.00,,,0.00,Rainwise IP-100,2013-06-22 00:20:00,
2013-06-21 19:26:00,89.8,69.3,28.47,SSE,157,16.3,23.6,51,0.00,,,0.00,Rainwise IP-100,2013-06-22 00:26:00,
2013-06-21 19:31:00,89.4,69.0,28.47,SSE,157,13.3,23.1,51,0.00,,,0.00,Rainwise IP-100,2013-06-22 00:31:00,
2013-06-21 19:36:00,89.1,69.3,28.47,SSE,157,17.5,23.8,52,0.00,,,0.00,Rainwise IP-100,2013-06-22 00:36:00,
2013-06-21 19:41:00,89.0,69.3,28.47,SSE,157,13.8,21.7,52,0.00,,,0.00,Rainwise IP-100,2013-06-22 00:41:00,
2013-06-21 19:46:00,88.8,69.7,28.47,SSE,157,15.6,28.2,53,0.00,,,0.00,Rainwise IP-100,2013-06-22 00:46:00,
2013-06-21 19:51:00,88.5,69.3,28.47,SSE,157,18.2,25.4,53,0.00,,,0.00,Rainwise IP-100,2013-06-22 00:51:00,
2013-06-21 19:56:00,88.3,69.7,28.46,SSE,157,11.7,24.5,54,0.00,,,0.00,Rainwise IP-100,2013-06-22 00:56:00,
2013-06-21 20:01:00,88.0,69.3,28.46,SSE,157,24.0,25.4,54,0.00,,,0.00,Rainwise IP-100,2013-06-22 01:01:00,
2013-06-21 20:06:00,87.8,69.7,28.47,SSE,157,16.1,26.8,55,0.00,,,0.00,Rainwise IP-100,2013-06-22 01:06:00,
2013-06-21 20:11:00,87.6,69.7,28.47,SSE,157,12.4,25.9,55,0.00,,,0.00,Rainwise IP-100,2013-06-22 01:11:00,
2013-06-21 20:16:00,87.4,69.7,28.47,SSE,157,14.2,21.9,56,0.00,,,0.00,Rainwise IP-100,2013-06-22 01:16:00,
2013-06-21 20:21:00,87.2,69.7,28.48,SSE,157,15.2,21.9,56,0.00,,,0.00,Rainwise IP-100,2013-06-22 01:21:00,
2013-06-21 20:27:00,87.0,69.3,28.48,SSE,157,10.3,24.9,56,0.00,,,0.00,Rainwise IP-100,2013-06-22 01:27:00,
2013-06-21 20:32:00,86.9,70.0,28.48,SSE,157,11.0,23.1,57,0.00,,,0.00,Rainwise IP-100,2013-06-22 01:32:00,
2013-06-21 20:37:00,86.7,69.7,28.48,South,180,13.1,18.7,57,0.00,,,0.00,Rainwise IP-100,2013-06-22 01:37:00,
2013-06-21 20:42:00,86.6,69.3,28.48,SSE,157,11.7,28.2,57,0.00,,,0.00,Rainwise IP-100,2013-06-22 01:42:00,
2013-06-21 20:47:00,86.5,70.0,28.48,SSE,157,17.3,23.6,58,0.00,,,0.00,Rainwise IP-100,2013-06-22 01:47:00,
2013-06-21 20:52:00,86.3,69.7,28.48,SSE,157,16.8,22.4,58,0.00,,,0.00,Rainwise IP-100,2013-06-22 01:52:00,
2013-06-21 20:57:00,86.1,70.0,28.48,SSE,157,12.4,23.8,59,0.00,,,0.00,Rainwise IP-100,2013-06-22 01:57:00,
2013-06-21 21:02:00,86.0,70.0,28.48,SSE,157,12.8,24.7,59,0.00,,,0.00,Rainwise IP-100,2013-06-22 02:02:00,
2013-06-21 21:07:00,85.9,70.0,28.48,SSE,157,13.8,22.4,59,0.00,,,0.00,Rainwise IP-100,2013-06-22 02:07:00,
2013-06-21 21:12:00,85.7,70.0,28.48,SSE,157,14.9,20.3,60,0.00,,,0.00,Rainwise IP-100,2013-06-22 02:12:00,
2013-06-21 21:17:00,85.4,70.0,28.48,SSE,157,15.6,20.1,60,0.00,,,0.00,Rainwise IP-100,2013-06-22 02:17:00,
2013-06-21 21:22:00,85.2,70.0,28.48,SSE,157,14.9,19.8,61,0.00,,,0.00,Rainwise IP-100,2013-06-22 02:22:00,
2013-06-21 21:28:00,85.1,70.0,28.47,SSE,157,10.7,21.5,61,0.00,,,0.00,Rainwise IP-100,2013-06-22 02:28:00,
2013-06-21 21:33:00,85.0,70.5,28.48,SSE,157,17.0,21.5,62,0.00,,,0.00,Rainwise IP-100,2013-06-22 02:33:00,
2013-06-21 21:38:00,84.8,70.0,28.48,SSE,157,16.3,22.9,62,0.00,,,0.00,Rainwise IP-100,2013-06-22 02:38:00,
2013-06-21 21:43:00,84.7,70.0,28.48,SSE,157,15.2,20.5,62,0.00,,,0.00,Rainwise IP-100,2013-06-22 02:43:00,
2013-06-21 21:48:00,84.6,71.0,28.49,SSE,157,11.7,19.1,63,0.00,,,0.00,Rainwise IP-100,2013-06-22 02:48:00,
2013-06-21 21:53:00,84.4,70.5,28.49,SSE,157,14.5,18.7,63,0.00,,,0.00,Rainwise IP-100,2013-06-22 02:53:00,
2013-06-21 21:58:00,84.2,71.0,28.48,SSE,157,14.7,19.6,64,0.00,,,0.00,Rainwise IP-100,2013-06-22 02:58:00,
2013-06-21 22:03:00,84.1,71.0,28.49,SSE,157,17.5,21.5,64,0.00,,,0.00,Rainwise IP-100,2013-06-22 03:03:00,
2013-06-21 22:08:00,84.1,71.0,28.49,SSE,157,10.0,24.7,64,0.00,,,0.00,Rainwise IP-100,2013-06-22 03:08:00,
2013-06-21 22:13:00,84.0,71.0,28.49,South,180,14.7,21.5,64,0.00,,,0.00,Rainwise IP-100,2013-06-22 03:13:00,
2013-06-21 22:18:00,83.9,71.0,28.50,SSE,157,15.6,20.3,64,0.00,,,0.00,Rainwise IP-100,2013-06-22 03:18:00,
2013-06-21 22:23:00,83.7,70.5,28.50,SSE,157,14.9,21.9,64,0.00,,,0.00,Rainwise IP-100,2013-06-22 03:23:00,
2013-06-21 22:29:00,83.6,70.5,28.50,SSE,157,9.1,24.0,65,0.00,,,0.00,Rainwise IP-100,2013-06-22 03:29:00,
2013-06-21 22:34:00,83.6,70.5,28.51,South,180,10.5,24.5,65,0.00,,,0.00,Rainwise IP-100,2013-06-22 03:34:00,
2013-06-21 22:39:00,83.4,70.5,28.50,SSE,157,14.2,23.8,65,0.00,,,0.00,Rainwise IP-100,2013-06-22 03:39:00,
2013-06-21 22:44:00,83.3,70.5,28.51,SSE,157,11.2,21.2,65,0.00,,,0.00,Rainwise IP-100,2013-06-22 03:44:00,
2013-06-21 22:49:00,83.3,70.5,28.51,SSE,157,8.4,21.5,65,0.00,,,0.00,Rainwise IP-100,2013-06-22 03:49:00,
2013-06-21 22:54:00,83.1,70.0,28.51,SSE,157,13.1,18.9,65,0.00,,,0.00,Rainwise IP-100,2013-06-22 03:54:00,
2013-06-21 22:59:00,82.9,70.5,28.50,SSE,157,20.3,24.7,66,0.00,,,0.00,Rainwise IP-100,2013-06-22 03:59:00,
2013-06-21 23:01:00,82.8,69.7,28.51,SSE,157,16.6,24.7,65,0.00,,,0.00,Rainwise IP-100,2013-06-22 04:01:00,
2013-06-21 23:02:00,82.8,69.7,28.51,SSE,157,11.9,24.7,65,0.00,,,0.00,Rainwise IP-100,2013-06-22 04:02:00,
2013-06-21 23:03:00,82.8,69.7,28.50,SSE,157,21.9,23.8,65,0.00,,,0.00,Rainwise IP-100,2013-06-22 04:03:00,
2013-06-21 23:04:00,82.8,69.7,28.51,South,180,12.1,23.8,65,0.00,,,0.00,Rainwise IP-100,2013-06-22 04:04:00,
2013-06-21 23:09:00,82.7,69.7,28.51,South,180,10.7,23.1,65,0.00,,,0.00,Rainwise IP-100,2013-06-22 04:09:00,
2013-06-21 23:14:00,82.5,69.7,28.51,SSE,157,12.4,23.6,65,0.00,,,0.00,Rainwise IP-100,2013-06-22 04:14:00,
2013-06-21 23:19:00,82.4,69.7,28.52,SSE,157,13.8,21.7,65,0.00,,,0.00,Rainwise IP-100,2013-06-22 04:19:00,
2013-06-21 23:24:00,82.3,69.3,28.52,SSE,157,14.0,19.1,65,0.00,,,0.00,Rainwise IP-100,2013-06-22 04:24:00,
2013-06-21 23:25:00,82.2,69.3,28.52,SSE,157,16.1,19.1,65,0.00,,,0.00,Rainwise IP-100,2013-06-22 04:25:00,
2013-06-21 23:31:00,82.1,68.5,28.52,SSE,157,18.4,21.7,64,0.00,,,0.00,Rainwise IP-100,2013-06-22 04:31:00,
2013-06-21 23:36:00,82.1,68.5,28.52,SSE,157,11.2,21.0,64,0.00,,,0.00,Rainwise IP-100,2013-06-22 04:36:00,
2013-06-21 23:41:00,82.0,68.0,28.52,SSE,157,15.4,21.9,63,0.00,,,0.00,Rainwise IP-100,2013-06-22 04:41:00,
2013-06-21 23:46:00,81.8,68.0,28.52,SSE,157,15.4,20.8,63,0.00,,,0.00,Rainwise IP-100,2013-06-22 04:46:00,
2013-06-21 23:51:00,81.7,67.5,28.52,SSE,157,18.2,23.3,62,0.00,,,0.00,Rainwise IP-100,2013-06-22 04:51:00,
2013-06-21 23:56:00,81.7,67.5,28.52,SSE,157,17.3,24.9,62,0.00,,,0.00,Rainwise IP-100,2013-06-22 04:56:00,